QFA490 YMML-YSSY

Flight info

Callsign QFA490
Flight time 1h 5m
Altitude 33000
Route DOSEL Y59 RIVET
Aircraft A21N/M-SDE2E3FGHIRWXY/LB1

Departure

Time 2026-05-06 16:30
Airport Melbourne Airport (YMML)

Arrival

Time 2026-05-06 17:36
Airport Sydney Kingsford Smith International Airport (YSSY)
Time Latitude Longitude Altitude Speed Heading
2026-05-06 15:50 -37.66676 144.85259 402 ft 0 kts 262°
2026-05-06 16:16 -37.66675 144.85269 402 ft 4 kts 262°
2026-05-06 16:16 -37.66671 144.85302 401 ft 4 kts 264°
2026-05-06 16:16 -37.66672 144.85335 400 ft 4 kts 288°
2026-05-06 16:16 -37.66685 144.85362 393 ft 4 kts 327°
2026-05-06 16:17 -37.66700 144.85369 396 ft 2 kts 352°
2026-05-06 16:17 -37.66702 144.85369 396 ft 1 kts 352°
2026-05-06 16:22 -37.66686 144.85367 393 ft 4 kts 352°
2026-05-06 16:22 -37.66653 144.85361 398 ft 6 kts 352°
2026-05-06 16:22 -37.66604 144.85352 401 ft 8 kts 347°
2026-05-06 16:23 -37.66544 144.85313 401 ft 11 kts 318°
2026-05-06 16:23 -37.66503 144.85234 405 ft 9 kts 285°
2026-05-06 16:23 -37.66493 144.85151 411 ft 9 kts 281°
2026-05-06 16:23 -37.66478 144.85088 411 ft 9 kts 290°
2026-05-06 16:24 -37.66449 144.85016 414 ft 8 kts 311°
2026-05-06 16:24 -37.66413 144.84975 413 ft 6 kts 322°
2026-05-06 16:24 -37.66402 144.84965 411 ft 0 kts 320°
2026-05-06 16:26 -37.66401 144.84963 411 ft 2 kts 320°
2026-05-06 16:27 -37.66384 144.84946 413 ft 4 kts 322°
2026-05-06 16:27 -37.66362 144.84924 412 ft 0 kts 320°
2026-05-06 16:27 -37.66351 144.84913 415 ft 4 kts 320°
2026-05-06 16:28 -37.66326 144.84888 414 ft 6 kts 322°
2026-05-06 16:28 -37.66291 144.84853 412 ft 8 kts 322°
2026-05-06 16:28 -37.66244 144.84807 410 ft 9 kts 322°
2026-05-06 16:28 -37.66223 144.84753 416 ft 6 kts 273°
2026-05-06 16:29 -37.66223 144.84748 414 ft 0 kts 273°
2026-05-06 16:30 -37.66223 144.84746 414 ft 4 kts 273°
2026-05-06 16:30 -37.66216 144.84621 411 ft 47 kts 274°
2026-05-06 16:30 -37.66148 144.83440 493 ft 146 kts 272°
2026-05-06 16:30 -37.66072 144.82126 1430 ft 156 kts 271°
2026-05-06 16:31 -37.66010 144.80687 2500 ft 167 kts 269°
2026-05-06 16:31 -37.65929 144.79156 3053 ft 186 kts 270°
2026-05-06 16:31 -37.65838 144.77432 3504 ft 207 kts 269°
2026-05-06 16:31 -37.65742 144.75518 4122 ft 224 kts 270°
2026-05-06 16:32 -37.65597 144.73516 4853 ft 232 kts 269°
2026-05-06 16:32 -37.65474 144.71479 5709 ft 235 kts 268°
2026-05-06 16:32 -37.65348 144.69430 6535 ft 240 kts 268°
2026-05-06 16:32 -37.65033 144.67333 7322 ft 252 kts 284°
2026-05-06 16:33 -37.64010 144.65449 8050 ft 273 kts 310°
2026-05-06 16:33 -37.62291 144.64241 8727 ft 296 kts 335°
2026-05-06 16:33 -37.60292 144.63580 9572 ft 295 kts 339°
2026-05-06 16:34 -37.56158 144.62479 10646 ft 328 kts 354°
2026-05-06 16:34 -37.53820 144.63027 10802 ft 359 kts 18°
2026-05-06 16:34 -37.51639 144.64733 11157 ft 376 kts 41°
2026-05-06 16:34 -37.49967 144.67291 11736 ft 384 kts 58°
2026-05-06 16:35 -37.48562 144.70157 12449 ft 384 kts 58°
2026-05-06 16:35 -37.47148 144.72964 13276 ft 384 kts 59°
2026-05-06 16:35 -37.45837 144.75915 14000 ft 388 kts 61°
2026-05-06 16:35 -37.44527 144.78904 14610 ft 392 kts 61°
2026-05-06 16:36 -37.43178 144.81896 15215 ft 395 kts 60°
2026-05-06 16:36 -37.41796 144.84921 15796 ft 400 kts 59°
2026-05-06 16:36 -37.40410 144.87973 16378 ft 404 kts 59°
2026-05-06 16:36 -37.38997 144.91057 16946 ft 409 kts 59°
2026-05-06 16:37 -37.37556 144.94169 17524 ft 414 kts 59°
2026-05-06 16:37 -37.36102 144.97340 17941 ft 422 kts 58°
2026-05-06 16:37 -37.34624 145.00566 18437 ft 428 kts 58°
2026-05-06 16:37 -37.33139 145.03819 19021 ft 430 kts 57°
2026-05-06 16:38 -37.31640 145.07085 19550 ft 433 kts 56°
2026-05-06 16:38 -37.30121 145.10366 20030 ft 437 kts 56°
2026-05-06 16:38 -37.28599 145.13628 20482 ft 441 kts 56°
2026-05-06 16:38 -37.27037 145.16963 20926 ft 445 kts 55°
2026-05-06 16:39 -37.25468 145.20339 21379 ft 449 kts 55°
2026-05-06 16:39 -37.23893 145.23746 21821 ft 453 kts 55°
2026-05-06 16:39 -37.22297 145.27176 22260 ft 457 kts 54°
2026-05-06 16:39 -37.20678 145.30633 22727 ft 460 kts 54°
2026-05-06 16:40 -37.19059 145.34122 23160 ft 464 kts 54°
2026-05-06 16:40 -37.17431 145.37633 23571 ft 468 kts 53°
2026-05-06 16:40 -37.15682 145.41068 23928 ft 467 kts 47°
2026-05-06 16:40 -37.13779 145.44378 24209 ft 469 kts 46°
2026-05-06 16:41 -37.11849 145.47695 24522 ft 473 kts 46°
2026-05-06 16:41 -37.10539 145.49956 24763 ft 475 kts 46°
2026-05-06 16:41 -37.08625 145.53278 25118 ft 477 kts 46°
2026-05-06 16:41 -37.06698 145.56649 25610 ft 475 kts 46°
2026-05-06 16:42 -37.04765 145.60009 25994 ft 476 kts 46°
2026-05-06 16:42 -37.02817 145.63374 26339 ft 478 kts 46°
2026-05-06 16:42 -37.00862 145.66765 26599 ft 481 kts 46°
2026-05-06 16:42 -36.98899 145.70177 26869 ft 485 kts 46°
2026-05-06 16:43 -36.96922 145.73607 27178 ft 488 kts 46°
2026-05-06 16:43 -36.94941 145.77058 27499 ft 490 kts 46°
2026-05-06 16:43 -36.92942 145.80517 27893 ft 490 kts 45°
2026-05-06 16:43 -36.90943 145.83957 28340 ft 489 kts 45°
2026-05-06 16:44 -36.88944 145.87402 28636 ft 491 kts 46°
2026-05-06 16:44 -36.86932 145.90869 28885 ft 494 kts 46°
2026-05-06 16:44 -36.84911 145.94334 29220 ft 494 kts 46°
2026-05-06 16:44 -36.82889 145.97806 29642 ft 494 kts 46°
2026-05-06 16:45 -36.80218 146.02394 30167 ft 492 kts 46°
2026-05-06 16:45 -36.78883 146.04683 30360 ft 492 kts 46°
2026-05-06 16:45 -36.76877 146.08126 30763 ft 490 kts 45°
2026-05-06 16:45 -36.74879 146.11551 31037 ft 488 kts 44°
2026-05-06 16:46 -36.72871 146.14976 31252 ft 489 kts 44°
2026-05-06 16:46 -36.70864 146.18404 31510 ft 489 kts 44°
2026-05-06 16:46 -36.68853 146.21831 31791 ft 489 kts 44°
2026-05-06 16:46 -36.66852 146.25249 32088 ft 488 kts 44°
2026-05-06 16:47 -36.64851 146.28658 32370 ft 487 kts 44°
2026-05-06 16:47 -36.62854 146.32063 32641 ft 486 kts 44°
2026-05-06 16:47 -36.60862 146.35448 32912 ft 484 kts 43°
2026-05-06 16:47 -36.58882 146.38829 33149 ft 483 kts 43°
2026-05-06 16:48 -36.56910 146.42195 33186 ft 480 kts 43°
2026-05-06 16:48 -36.52975 146.48895 33158 ft 479 kts 43°
2026-05-06 16:49 -36.49047 146.55543 33081 ft 479 kts 43°
2026-05-06 16:49 -36.45087 146.62228 33134 ft 480 kts 43°
2026-05-06 16:50 -36.41109 146.68885 33132 ft 480 kts 43°
2026-05-06 16:50 -36.37139 146.75561 33127 ft 480 kts 43°
2026-05-06 16:51 -36.33161 146.82236 33112 ft 482 kts 43°
2026-05-06 16:51 -36.29155 146.88911 33120 ft 483 kts 42°
2026-05-06 16:52 -36.25161 146.95613 33111 ft 484 kts 43°
2026-05-06 16:52 -36.21198 147.02274 33066 ft 484 kts 43°
2026-05-06 16:53 -36.17165 147.08967 33096 ft 486 kts 43°
2026-05-06 16:53 -36.13141 147.15663 33107 ft 483 kts 43°
2026-05-06 16:54 -36.09125 147.22323 33105 ft 483 kts 42°
2026-05-06 16:54 -36.05094 147.28973 33084 ft 482 kts 42°
2026-05-06 16:55 -36.01071 147.35596 33094 ft 482 kts 42°
2026-05-06 16:55 -35.97061 147.42216 33094 ft 479 kts 42°
2026-05-06 16:56 -35.93066 147.48798 33091 ft 478 kts 42°
2026-05-06 16:56 -35.89086 147.55311 33085 ft 479 kts 42°
2026-05-06 16:57 -35.85057 147.61853 33083 ft 479 kts 42°
2026-05-06 16:57 -35.81035 147.68404 33081 ft 477 kts 42°
2026-05-06 16:58 -35.77040 147.74936 33064 ft 478 kts 42°
2026-05-06 16:58 -35.73028 147.81471 33078 ft 478 kts 42°
2026-05-06 16:59 -35.69023 147.87999 33075 ft 477 kts 42°
2026-05-06 16:59 -35.65002 147.94506 33043 ft 477 kts 42°
2026-05-06 17:00 -35.61005 148.00982 33081 ft 475 kts 42°
2026-05-06 17:00 -35.57033 148.07402 33095 ft 475 kts 42°
2026-05-06 17:01 -35.53027 148.13861 33076 ft 475 kts 42°
2026-05-06 17:01 -35.49027 148.20315 33042 ft 473 kts 42°
2026-05-06 17:02 -35.45050 148.26716 33065 ft 471 kts 42°
2026-05-06 17:02 -35.41069 148.33096 33077 ft 471 kts 42°
2026-05-06 17:03 -35.37089 148.39468 33075 ft 471 kts 42°
2026-05-06 17:03 -35.33136 148.45799 33062 ft 471 kts 42°
2026-05-06 17:04 -35.29154 148.52171 33056 ft 468 kts 42°
2026-05-06 17:04 -35.25181 148.58484 33067 ft 469 kts 42°
2026-05-06 17:05 -35.21199 148.64804 33032 ft 469 kts 42°
2026-05-06 17:05 -35.17197 148.71156 33055 ft 472 kts 43°
2026-05-06 17:06 -35.13198 148.77518 33065 ft 472 kts 43°
2026-05-06 17:06 -35.09182 148.83861 33071 ft 471 kts 42°
2026-05-06 17:07 -35.05169 148.90199 33036 ft 472 kts 43°
2026-05-06 17:07 -35.01165 148.96512 33069 ft 473 kts 42°
2026-05-06 17:08 -34.97126 149.02855 33077 ft 473 kts 42°
2026-05-06 17:08 -34.93118 149.09179 33089 ft 468 kts 42°
2026-05-06 17:09 -34.89112 149.15433 33065 ft 469 kts 42°
2026-05-06 17:09 -34.85096 149.21711 33085 ft 470 kts 42°
2026-05-06 17:10 -34.81103 149.27951 33082 ft 470 kts 42°
2026-05-06 17:10 -34.77098 149.34203 32940 ft 465 kts 42°
2026-05-06 17:10 -34.75094 149.37331 32584 ft 470 kts 43°
2026-05-06 17:11 -34.73266 149.40682 32306 ft 482 kts 52°
2026-05-06 17:11 -34.71671 149.44275 31936 ft 482 kts 54°
2026-05-06 17:11 -34.70123 149.47878 31372 ft 479 kts 54°
2026-05-06 17:11 -34.68580 149.51458 30771 ft 476 kts 54°
2026-05-06 17:12 -34.67037 149.55008 30205 ft 473 kts 54°
2026-05-06 17:12 -34.65500 149.58528 29514 ft 470 kts 54°
2026-05-06 17:12 -34.63971 149.62025 28858 ft 467 kts 54°
2026-05-06 17:12 -34.62450 149.65496 28252 ft 463 kts 54°
2026-05-06 17:13 -34.60950 149.68918 27661 ft 457 kts 55°
2026-05-06 17:13 -34.59466 149.72302 27095 ft 452 kts 55°
2026-05-06 17:13 -34.57992 149.75662 26507 ft 449 kts 55°
2026-05-06 17:13 -34.56525 149.78997 25958 ft 445 kts 55°
2026-05-06 17:14 -34.55092 149.82261 25405 ft 442 kts 55°
2026-05-06 17:14 -34.53650 149.85539 24837 ft 440 kts 56°
2026-05-06 17:14 -34.52207 149.88805 24275 ft 438 kts 56°
2026-05-06 17:14 -34.50770 149.92054 23716 ft 436 kts 55°
2026-05-06 17:15 -34.49343 149.95288 23063 ft 433 kts 56°
2026-05-06 17:15 -34.47924 149.98495 22467 ft 430 kts 56°
2026-05-06 17:15 -34.46513 150.01678 21870 ft 427 kts 56°
2026-05-06 17:15 -34.45113 150.04836 21290 ft 422 kts 56°
2026-05-06 17:16 -34.43736 150.07948 20735 ft 416 kts 56°
2026-05-06 17:16 -34.42386 150.11003 20264 ft 409 kts 56°
2026-05-06 17:16 -34.41056 150.14010 20067 ft 397 kts 56°
2026-05-06 17:16 -34.39764 150.16925 19546 ft 394 kts 56°
2026-05-06 17:17 -34.38452 150.19862 18804 ft 396 kts 56°
2026-05-06 17:17 -34.37160 150.22747 18310 ft 392 kts 56°
2026-05-06 17:17 -34.35871 150.25634 17808 ft 386 kts 56°
2026-05-06 17:17 -34.34607 150.28469 17349 ft 380 kts 56°
2026-05-06 17:18 -34.33360 150.31266 16896 ft 376 kts 56°
2026-05-06 17:18 -34.32116 150.34045 16469 ft 375 kts 57°
2026-05-06 17:18 -34.30872 150.36818 16036 ft 375 kts 57°
2026-05-06 17:18 -34.29631 150.39590 15616 ft 375 kts 57°
2026-05-06 17:19 -34.28388 150.42362 15199 ft 374 kts 57°
2026-05-06 17:19 -34.27150 150.45125 14778 ft 374 kts 57°
2026-05-06 17:19 -34.25907 150.47907 14333 ft 375 kts 57°
2026-05-06 17:19 -34.24666 150.50684 13881 ft 376 kts 58°
2026-05-06 17:20 -34.23427 150.53458 13386 ft 371 kts 58°
2026-05-06 17:20 -34.22211 150.56179 12938 ft 365 kts 57°
2026-05-06 17:20 -34.21015 150.58843 12509 ft 358 kts 58°
2026-05-06 17:20 -34.19839 150.61463 12058 ft 352 kts 58°
2026-05-06 17:21 -34.18683 150.64037 11627 ft 346 kts 58°
2026-05-06 17:21 -34.17540 150.66580 11219 ft 344 kts 58°
2026-05-06 17:21 -34.16400 150.69118 10830 ft 342 kts 58°
2026-05-06 17:21 -34.15288 150.71608 10589 ft 330 kts 58°
2026-05-06 17:22 -34.14213 150.73999 10405 ft 318 kts 58°
2026-05-06 17:22 -34.13176 150.76292 10209 ft 306 kts 58°
2026-05-06 17:22 -34.12176 150.78505 9865 ft 302 kts 58°
2026-05-06 17:22 -34.11173 150.80721 9434 ft 300 kts 58°
2026-05-06 17:23 -34.10172 150.82935 9024 ft 302 kts 59°
2026-05-06 17:23 -34.09167 150.85160 8665 ft 301 kts 59°
2026-05-06 17:23 -34.08171 150.87374 8359 ft 299 kts 59°
2026-05-06 17:23 -34.07185 150.89574 8079 ft 296 kts 59°
2026-05-06 17:24 -34.06208 150.91746 7811 ft 292 kts 59°
2026-05-06 17:24 -34.05240 150.93888 7541 ft 289 kts 59°
2026-05-06 17:24 -34.04284 150.96004 7297 ft 285 kts 59°
2026-05-06 17:24 -34.03478 150.98165 7047 ft 283 kts 73°
2026-05-06 17:25 -34.03246 151.00496 6770 ft 279 kts 98°
2026-05-06 17:25 -34.03916 151.02630 6510 ft 271 kts 129°
2026-05-06 17:25 -34.05157 151.04323 6267 ft 269 kts 138°
2026-05-06 17:25 -34.06476 151.05911 6024 ft 268 kts 138°
2026-05-06 17:26 -34.07835 151.07399 5770 ft 265 kts 149°
2026-05-06 17:26 -34.09482 151.08282 5541 ft 257 kts 170°
2026-05-06 17:26 -34.11231 151.08713 5315 ft 255 kts 174°
2026-05-06 17:26 -34.12975 151.09104 5083 ft 255 kts 174°
2026-05-06 17:27 -34.14714 151.09514 4853 ft 254 kts 173°
2026-05-06 17:27 -34.16436 151.09937 4610 ft 249 kts 173°
2026-05-06 17:27 -34.18109 151.10340 4375 ft 240 kts 174°
2026-05-06 17:27 -34.19712 151.10732 4182 ft 228 kts 175°
2026-05-06 17:28 -34.21184 151.11332 4003 ft 220 kts 156°
2026-05-06 17:28 -34.22290 151.12538 3895 ft 211 kts 131°
2026-05-06 17:28 -34.22923 151.14080 3767 ft 200 kts 109°
2026-05-06 17:28 -34.23070 151.15713 3494 ft 194 kts 86°
2026-05-06 17:29 -34.22759 151.17259 3111 ft 190 kts 63°
2026-05-06 17:29 -34.22034 151.18588 2972 ft 190 kts 41°
2026-05-06 17:29 -34.21050 151.19630 2973 ft 188 kts 31°
2026-05-06 17:29 -34.20031 151.20627 2981 ft 189 kts 33°
2026-05-06 17:30 -34.19354 151.21315 2984 ft 188 kts 34°
2026-05-06 17:30 -34.18365 151.22321 2988 ft 188 kts 33°
2026-05-06 17:30 -34.17305 151.23256 2983 ft 182 kts 14°
2026-05-06 17:30 -34.16139 151.23376 2990 ft 167 kts 341°
2026-05-06 17:31 -34.15021 151.23075 2998 ft 164 kts 335°
2026-05-06 17:31 -34.13829 151.22685 3022 ft 183 kts 336°
2026-05-06 17:31 -34.12593 151.22303 2996 ft 183 kts 339°
2026-05-06 17:31 -34.11344 151.21961 2953 ft 184 kts 341°
2026-05-06 17:32 -34.10088 151.21629 2775 ft 184 kts 341°
2026-05-06 17:32 -34.08844 151.21303 2537 ft 182 kts 341°
2026-05-06 17:32 -34.07640 151.20989 2291 ft 172 kts 341°
2026-05-06 17:32 -34.06513 151.20696 2102 ft 157 kts 340°
2026-05-06 17:33 -34.05510 151.20435 1881 ft 139 kts 340°
2026-05-06 17:33 -34.04573 151.20188 1688 ft 137 kts 340°
2026-05-06 17:33 -34.03640 151.19945 1485 ft 136 kts 340°
2026-05-06 17:33 -34.02704 151.19698 1310 ft 144 kts 341°
2026-05-06 17:34 -34.01727 151.19446 1115 ft 139 kts 340°
2026-05-06 17:34 -34.00799 151.19203 926 ft 138 kts 341°
2026-05-06 17:34 -33.99853 151.18963 757 ft 138 kts 342°
2026-05-06 17:34 -33.98933 151.18715 579 ft 133 kts 342°
2026-05-06 17:35 -33.98022 151.18476 378 ft 135 kts 344°
2026-05-06 17:35 -33.97109 151.18241 211 ft 134 kts 345°
2026-05-06 17:35 -33.96202 151.18009 37 ft 132 kts 344°
2026-05-06 17:36 -33.94865 151.17658 28 ft 57 kts 348°
2026-05-06 17:36 -33.94511 151.17568 30 ft 43 kts 347°
2026-05-06 17:36 -33.94382 151.17572 30 ft 18 kts 69°
2026-05-06 17:36 -33.94344 151.17718 28 ft 19 kts 40°
2026-05-06 17:37 -33.94263 151.17714 27 ft 10 kts 347°
2026-05-06 17:37 -33.94187 151.17691 27 ft 12 kts 347°
2026-05-06 17:37 -33.94097 151.17663 27 ft 14 kts 346°
2026-05-06 17:37 -33.93996 151.17635 28 ft 15 kts 348°
2026-05-06 17:38 -33.93887 151.17604 24 ft 17 kts 347°
2026-05-06 17:38 -33.93769 151.17574 25 ft 18 kts 350°
2026-05-06 17:38 -33.93644 151.17543 22 ft 19 kts 347°
2026-05-06 17:38 -33.93507 151.17508 24 ft 21 kts 350°
2026-05-06 17:39 -33.93416 151.17507 26 ft 12 kts
2026-05-06 17:39 -33.93329 151.17490 27 ft 14 kts 349°
2026-05-06 17:39 -33.93232 151.17464 26 ft 15 kts 348°
2026-05-06 17:39 -33.93125 151.17437 28 ft 14 kts 348°
2026-05-06 17:40 -33.93030 151.17412 29 ft 9 kts 353°
2026-05-06 17:40 -33.92982 151.17465 34 ft 12 kts 87°
2026-05-06 17:40 -33.93002 151.17576 36 ft 15 kts 102°
2026-05-06 17:40 -33.93017 151.17665 36 ft 7 kts 105°
2026-05-06 17:41 -33.93041 151.17725 36 ft 9 kts 119°
2026-05-06 17:41 -33.93062 151.17794 36 ft 4 kts 101°
2026-05-06 17:41 -33.93091 151.17813 36 ft 6 kts 182°
2026-05-06 17:41 -33.93138 151.17805 36 ft 4 kts 191°
2026-05-06 17:42 -33.93146 151.17803 36 ft 0 kts 189°
2026-05-06 17:42 -33.93149 151.17802 36 ft 0 kts 191°